Time,TemperatureF,DewpointF,PressureIn,WindDirection,WindDirectionDegrees,WindSpeedMPH,WindSpeedGustMPH,Humidity,HourlyPrecipIn,Conditions,Clouds,dailyrainin,SoftwareType,DateUTC
2013-05-07 00:01:00,59.5,59.2,29.99,East,90,0.0,0.0,99,0.00,,,1.07,meteohub,2013-05-07 04:01:00,
2013-05-07 00:02:00,59.5,59.2,29.99,East,90,0.0,0.0,99,0.00,,,1.07,meteohub,2013-05-07 04:02:00,
2013-05-07 00:04:00,59.5,59.2,29.99,East,90,0.0,0.0,99,0.00,,,1.07,meteohub,2013-05-07 04:04:00,
2013-05-07 00:09:00,59.4,59.0,29.99,East,90,0.0,0.0,99,0.00,,,0.00,meteohub,2013-05-07 04:09:00,
2013-05-07 00:14:00,59.2,58.8,29.99,East,90,0.0,0.0,99,0.00,,,0.00,meteohub,2013-05-07 04:14:00,
2013-05-07 00:19:00,59.0,58.6,29.99,East,90,0.0,0.0,99,0.00,,,0.00,meteohub,2013-05-07 04:19:00,
2013-05-07 00:24:00,58.8,58.5,29.99,East,90,0.0,0.0,99,0.00,,,0.00,meteohub,2013-05-07 04:24:00,
2013-05-07 00:29:00,58.6,58.3,29.99,East,90,0.0,0.0,99,0.00,,,0.00,meteohub,2013-05-07 04:29:00,
2013-05-07 00:35:00,58.5,58.1,29.99,East,90,0.0,0.0,99,0.00,,,0.00,meteohub,2013-05-07 04:35:00,
2013-05-07 00:40:00,58.3,57.9,29.99,East,90,0.0,0.0,99,0.00,,,0.00,meteohub,2013-05-07 04:40:00,
2013-05-07 00:45:00,58.1,57.7,29.99,East,90,0.0,0.0,99,0.00,,,0.00,meteohub,2013-05-07 04:45:00,
2013-05-07 00:50:00,57.9,57.6,29.99,East,90,0.0,0.0,99,0.00,,,0.00,meteohub,2013-05-07 04:50:00,
2013-05-07 00:55:00,57.7,57.4,29.99,East,90,0.0,0.0,99,0.00,,,0.00,meteohub,2013-05-07 04:55:00,
2013-05-07 01:00:00,57.4,57.0,29.99,East,90,0.0,0.0,99,0.00,,,0.00,meteohub,2013-05-07 05:00:00,
2013-05-07 01:05:00,57.4,57.0,29.99,East,90,0.0,0.0,99,0.00,,,0.00,meteohub,2013-05-07 05:05:00,
2013-05-07 01:10:00,57.2,56.8,29.99,East,90,0.0,0.0,99,0.00,,,0.00,meteohub,2013-05-07 05:10:00,
2013-05-07 01:15:00,57.0,56.7,29.99,East,90,0.0,0.0,99,0.00,,,0.00,meteohub,2013-05-07 05:15:00,
2013-05-07 01:21:00,56.8,56.5,29.99,East,90,0.0,0.0,99,0.00,,,0.00,meteohub,2013-05-07 05:21:00,
2013-05-07 01:26:00,56.8,56.5,29.99,East,90,0.0,0.0,99,0.00,,,0.00,meteohub,2013-05-07 05:26:00,
2013-05-07 01:31:00,56.7,56.3,29.99,East,90,0.0,0.0,99,0.00,,,0.00,meteohub,2013-05-07 05:31:00,
2013-05-07 01:36:00,56.7,56.3,29.98,East,90,0.0,0.0,99,0.00,,,0.00,meteohub,2013-05-07 05:36:00,
2013-05-07 01:41:00,56.5,56.1,29.98,East,90,0.0,0.0,99,0.00,,,0.00,meteohub,2013-05-07 05:41:00,
2013-05-07 01:46:00,56.3,55.9,29.98,East,90,0.0,0.0,99,0.00,,,0.00,meteohub,2013-05-07 05:46:00,
2013-05-07 01:51:00,56.1,55.8,29.98,East,90,0.0,0.0,99,0.00,,,0.00,meteohub,2013-05-07 05:51:00,
2013-05-07 01:56:00,55.9,55.6,29.98,East,90,0.0,0.0,99,0.00,,,0.00,meteohub,2013-05-07 05:56:00,
2013-05-07 02:01:00,55.9,55.6,29.98,East,90,0.0,0.0,99,0.00,,,0.00,meteohub,2013-05-07 06:01:00,
2013-05-07 02:06:00,55.8,55.4,29.98,East,90,0.0,0.0,99,0.00,,,0.00,meteohub,2013-05-07 06:06:00,
2013-05-07 02:11:00,55.8,55.4,29.98,East,90,0.0,0.0,99,0.00,,,0.00,meteohub,2013-05-07 06:11:00,
2013-05-07 02:17:00,55.6,55.2,29.98,East,90,0.0,0.0,99,0.00,,,0.00,meteohub,2013-05-07 06:17:00,
2013-05-07 02:22:00,55.6,55.2,29.97,East,90,0.0,0.0,99,0.00,,,0.00,meteohub,2013-05-07 06:22:00,
2013-05-07 02:27:00,55.4,55.0,29.97,East,90,0.0,0.0,99,0.00,,,0.00,meteohub,2013-05-07 06:27:00,
2013-05-07 02:32:00,55.2,54.3,29.97,East,90,0.0,0.0,97,0.00,,,0.00,meteohub,2013-05-07 06:32:00,
2013-05-07 02:37:00,55.2,54.3,29.96,East,90,0.0,0.0,97,0.00,,,0.00,meteohub,2013-05-07 06:37:00,
2013-05-07 02:42:00,55.0,54.1,29.97,East,90,0.0,0.0,97,0.00,,,0.00,meteohub,2013-05-07 06:42:00,
2013-05-07 02:47:00,55.0,54.1,29.96,East,90,0.0,0.0,97,0.00,,,0.00,meteohub,2013-05-07 06:47:00,
2013-05-07 02:52:00,54.9,54.0,29.96,East,90,0.0,0.0,97,0.00,,,0.00,meteohub,2013-05-07 06:52:00,
2013-05-07 02:57:00,54.5,53.6,29.96,East,90,0.0,0.0,97,0.00,,,0.00,meteohub,2013-05-07 06:57:00,
2013-05-07 03:02:00,54.5,53.6,29.96,East,90,0.0,0.0,97,0.00,,,0.00,meteohub,2013-05-07 07:02:00,
2013-05-07 03:07:00,54.3,53.4,29.96,East,90,0.0,0.0,97,0.00,,,0.00,meteohub,2013-05-07 07:07:00,
2013-05-07 03:13:00,54.1,53.2,29.96,East,90,0.0,0.0,97,0.00,,,0.00,meteohub,2013-05-07 07:13:00,
2013-05-07 03:18:00,54.0,53.1,29.96,East,90,0.0,0.0,97,0.00,,,0.00,meteohub,2013-05-07 07:18:00,
2013-05-07 03:23:00,53.8,52.9,29.96,East,90,0.0,0.0,97,0.00,,,0.00,meteohub,2013-05-07 07:23:00,
2013-05-07 03:28:00,53.8,52.9,29.96,East,90,0.0,0.0,97,0.00,,,0.00,meteohub,2013-05-07 07:28:00,
2013-05-07 03:33:00,53.6,52.7,29.96,East,90,0.0,0.0,97,0.00,,,0.00,meteohub,2013-05-07 07:33:00,
2013-05-07 03:38:00,53.4,52.9,29.96,East,90,0.0,0.0,98,0.00,,,0.00,meteohub,2013-05-07 07:38:00,
2013-05-07 03:43:00,53.2,52.7,29.96,East,90,0.0,0.0,98,0.00,,,0.00,meteohub,2013-05-07 07:43:00,
2013-05-07 03:48:00,53.1,52.5,29.96,East,90,0.0,0.0,98,0.00,,,0.00,meteohub,2013-05-07 07:48:00,
2013-05-07 03:53:00,53.1,52.5,29.96,East,90,0.0,0.0,98,0.00,,,0.00,meteohub,2013-05-07 07:53:00,
2013-05-07 03:58:00,52.9,52.3,29.96,East,90,0.0,0.0,98,0.00,,,0.00,meteohub,2013-05-07 07:58:00,
2013-05-07 04:03:00,52.9,52.3,29.96,East,90,0.0,0.0,98,0.00,,,0.00,meteohub,2013-05-07 08:03:00,
2013-05-07 04:08:00,52.9,52.3,29.96,East,90,0.0,0.0,98,0.00,,,0.00,meteohub,2013-05-07 08:08:00,
2013-05-07 04:13:00,52.5,52.0,29.95,East,90,0.0,0.0,98,0.00,,,0.00,meteohub,2013-05-07 08:13:00,
2013-05-07 04:18:00,52.3,51.8,29.95,East,90,0.0,0.0,98,0.00,,,0.00,meteohub,2013-05-07 08:18:00,
2013-05-07 04:23:00,52.3,51.8,29.95,East,90,0.0,0.0,98,0.00,,,0.00,meteohub,2013-05-07 08:23:00,
2013-05-07 04:29:00,52.2,51.6,29.96,East,90,0.0,0.0,98,0.00,,,0.00,meteohub,2013-05-07 08:29:00,
2013-05-07 04:34:00,52.2,51.6,29.96,East,90,0.0,0.0,98,0.00,,,0.00,meteohub,2013-05-07 08:34:00,
2013-05-07 04:39:00,52.2,51.6,29.96,East,90,0.0,0.0,98,0.00,,,0.00,meteohub,2013-05-07 08:39:00,
2013-05-07 04:44:00,52.0,51.4,29.96,East,90,0.0,0.0,98,0.00,,,0.00,meteohub,2013-05-07 08:44:00,
2013-05-07 04:50:00,51.8,51.3,29.96,East,90,0.0,0.0,98,0.00,,,0.00,meteohub,2013-05-07 08:50:00,
2013-05-07 04:55:00,51.4,51.1,29.96,East,90,0.0,0.0,99,0.00,,,0.00,meteohub,2013-05-07 08:55:00,
2013-05-07 05:00:00,51.4,51.1,29.96,East,90,0.0,0.0,99,0.00,,,0.00,meteohub,2013-05-07 09:00:00,
2013-05-07 05:05:00,51.3,50.9,29.96,East,90,0.0,0.0,99,0.00,,,0.00,meteohub,2013-05-07 09:05:00,
2013-05-07 05:10:00,51.3,50.9,29.96,East,90,0.0,0.0,99,0.00,,,0.00,meteohub,2013-05-07 09:10:00,
2013-05-07 05:16:00,51.3,50.9,29.96,East,90,0.0,0.0,99,0.00,,,0.00,meteohub,2013-05-07 09:16:00,
2013-05-07 05:21:00,51.1,50.7,29.95,East,90,0.0,0.0,99,0.00,,,0.00,meteohub,2013-05-07 09:21:00,
2013-05-07 05:26:00,51.1,50.7,29.96,East,90,0.0,0.0,99,0.00,,,0.00,meteohub,2013-05-07 09:26:00,
2013-05-07 05:31:00,51.1,50.7,29.96,East,90,0.0,0.0,99,0.00,,,0.00,meteohub,2013-05-07 09:31:00,
2013-05-07 05:36:00,51.1,50.7,29.96,East,90,0.0,0.0,99,0.00,,,0.00,meteohub,2013-05-07 09:36:00,
2013-05-07 05:41:00,51.1,50.7,29.96,East,90,0.0,0.0,99,0.00,,,0.00,meteohub,2013-05-07 09:41:00,
2013-05-07 05:46:00,51.1,50.7,29.96,East,90,0.0,0.0,99,0.00,,,0.00,meteohub,2013-05-07 09:46:00,
2013-05-07 05:51:00,51.1,50.7,29.96,East,90,0.0,0.0,99,0.00,,,0.00,meteohub,2013-05-07 09:51:00,
2013-05-07 05:56:00,51.1,50.7,29.96,East,90,0.0,0.0,99,0.00,,,0.00,meteohub,2013-05-07 09:56:00,
2013-05-07 06:01:00,51.1,50.7,29.96,East,90,0.0,0.0,99,0.00,,,0.00,meteohub,2013-05-07 10:01:00,
2013-05-07 06:06:00,51.1,50.7,29.97,East,90,0.0,0.0,99,0.00,,,0.00,meteohub,2013-05-07 10:06:00,
2013-05-07 06:11:00,51.1,50.7,29.97,East,90,0.0,0.0,99,0.00,,,0.00,meteohub,2013-05-07 10:11:00,
2013-05-07 06:16:00,51.1,50.7,29.97,East,90,0.0,0.0,99,0.00,,,0.00,meteohub,2013-05-07 10:16:00,
2013-05-07 06:21:00,51.1,50.7,29.96,East,90,0.0,0.0,99,0.00,,,0.00,meteohub,2013-05-07 10:21:00,
2013-05-07 06:26:00,51.1,50.7,29.97,East,90,0.0,0.0,99,0.00,,,0.00,meteohub,2013-05-07 10:26:00,
2013-05-07 06:31:00,51.1,50.7,29.97,East,90,0.0,0.0,99,0.00,,,0.00,meteohub,2013-05-07 10:31:00,
2013-05-07 06:36:00,51.3,50.9,29.97,East,90,0.0,0.0,99,0.00,,,0.00,meteohub,2013-05-07 10:36:00,
2013-05-07 06:41:00,51.3,50.9,29.97,East,90,0.0,0.0,99,0.00,,,0.00,meteohub,2013-05-07 10:41:00,
2013-05-07 06:47:00,51.3,50.9,29.97,East,90,0.0,0.0,99,0.00,,,0.00,meteohub,2013-05-07 10:47:00,
2013-05-07 06:52:00,51.3,50.9,29.97,East,90,0.0,0.0,99,0.00,,,0.00,meteohub,2013-05-07 10:52:00,
2013-05-07 06:57:00,51.4,51.1,29.98,East,90,0.0,0.0,99,0.00,,,0.00,meteohub,2013-05-07 10:57:00,
2013-05-07 07:02:00,51.6,51.3,29.98,East,90,0.0,0.0,99,0.00,,,0.00,meteohub,2013-05-07 11:02:00,
2013-05-07 07:07:00,51.8,51.3,29.98,East,90,0.0,0.0,98,0.00,,,0.00,meteohub,2013-05-07 11:07:00,
2013-05-07 07:14:00,52.5,52.0,29.98,East,90,0.0,0.0,98,0.00,,,0.00,meteohub,2013-05-07 11:14:00,
2013-05-07 07:19:00,52.9,52.3,29.98,East,90,0.0,0.0,98,0.00,,,0.00,meteohub,2013-05-07 11:19:00,
2013-05-07 07:25:00,53.1,52.5,29.98,East,90,0.0,0.0,98,0.00,,,0.00,meteohub,2013-05-07 11:25:00,
2013-05-07 07:30:00,53.2,52.7,29.98,East,90,0.0,0.0,98,0.00,,,0.00,meteohub,2013-05-07 11:30:00,
2013-05-07 07:35:00,53.6,52.7,29.98,East,90,0.0,0.0,97,0.00,,,0.00,meteohub,2013-05-07 11:35:00,
2013-05-07 07:40:00,53.8,52.9,29.98,East,90,0.0,0.0,97,0.00,,,0.00,meteohub,2013-05-07 11:40:00,
2013-05-07 07:46:00,54.0,53.1,29.97,East,90,0.0,0.0,97,0.00,,,0.00,meteohub,2013-05-07 11:46:00,
2013-05-07 07:51:00,54.1,53.2,29.98,East,90,0.0,0.0,97,0.00,,,0.00,meteohub,2013-05-07 11:51:00,
2013-05-07 07:56:00,54.1,53.2,29.98,East,90,0.0,0.0,97,0.00,,,0.00,meteohub,2013-05-07 11:56:00,
2013-05-07 08:01:00,54.3,53.4,29.98,East,90,0.0,0.0,97,0.00,,,0.00,meteohub,2013-05-07 12:01:00,
2013-05-07 08:06:00,54.5,53.6,29.99,East,90,0.0,0.0,97,0.00,,,0.00,meteohub,2013-05-07 12:06:00,
2013-05-07 08:11:00,54.9,54.0,29.99,East,90,0.0,0.0,97,0.00,,,0.00,meteohub,2013-05-07 12:11:00,
2013-05-07 08:16:00,55.4,55.0,29.99,East,90,0.0,0.0,99,0.00,,,0.00,meteohub,2013-05-07 12:16:00,
2013-05-07 08:21:00,55.6,55.2,29.99,East,90,0.0,0.0,99,0.00,,,0.00,meteohub,2013-05-07 12:21:00,
2013-05-07 08:26:00,56.1,55.8,29.99,East,90,0.0,0.0,99,0.00,,,0.00,meteohub,2013-05-07 12:26:00,
2013-05-07 08:31:00,56.5,56.1,29.99,East,90,0.0,0.0,99,0.00,,,0.00,meteohub,2013-05-07 12:31:00,
2013-05-07 08:37:00,56.5,56.1,29.99,SE,135,0.0,0.0,99,0.00,,,0.00,meteohub,2013-05-07 12:37:00,
2013-05-07 08:42:00,56.5,56.1,29.99,SE,135,0.0,0.0,99,0.00,,,0.00,meteohub,2013-05-07 12:42:00,
2013-05-07 08:47:00,56.5,56.1,30.00,SE,135,0.0,0.0,99,0.00,,,0.00,meteohub,2013-05-07 12:47:00,
2013-05-07 08:53:00,56.7,56.3,30.00,SE,135,0.0,0.0,99,0.00,,,0.00,meteohub,2013-05-07 12:53:00,
2013-05-07 08:58:00,56.7,56.3,30.00,SE,135,0.0,0.0,99,0.00,,,0.00,meteohub,2013-05-07 12:58:00,
2013-05-07 09:03:00,56.8,56.5,30.00,SE,135,0.0,0.0,99,0.00,,,0.00,meteohub,2013-05-07 13:03:00,
2013-05-07 09:08:00,56.8,56.5,30.00,SE,135,0.0,0.0,99,0.00,,,0.00,meteohub,2013-05-07 13:08:00,
2013-05-07 09:13:00,56.8,56.5,30.01,SE,135,0.0,0.0,99,0.00,,,0.00,meteohub,2013-05-07 13:13:00,
2013-05-07 09:18:00,56.8,56.5,30.00,SE,135,0.0,0.0,99,0.00,,,0.00,meteohub,2013-05-07 13:18:00,
2013-05-07 09:23:00,57.0,56.7,30.00,SE,135,0.0,0.0,99,0.00,,,0.00,meteohub,2013-05-07 13:23:00,
2013-05-07 09:28:00,57.2,56.8,30.00,East,90,1.0,0.0,99,0.00,,,0.00,meteohub,2013-05-07 13:28:00,
2013-05-07 09:33:00,57.2,56.8,30.01,East,90,0.0,1.0,99,0.00,,,0.00,meteohub,2013-05-07 13:33:00,
2013-05-07 09:38:00,57.4,57.0,30.01,East,90,0.0,1.0,99,0.00,,,0.00,meteohub,2013-05-07 13:38:00,
2013-05-07 09:43:00,57.4,57.0,30.01,East,90,0.0,1.0,99,0.00,,,0.00,meteohub,2013-05-07 13:43:00,
2013-05-07 09:49:00,57.4,57.0,30.01,East,90,0.0,0.0,99,0.00,,,0.00,meteohub,2013-05-07 13:49:00,
2013-05-07 09:54:00,57.4,57.0,30.01,East,90,0.0,1.0,99,0.00,,,0.00,meteohub,2013-05-07 13:54:00,
2013-05-07 09:59:00,57.6,57.2,30.01,SE,135,0.0,1.0,99,0.00,,,0.00,meteohub,2013-05-07 13:59:00,
2013-05-07 10:04:00,57.9,57.6,30.01,SE,135,0.0,1.0,99,0.00,,,0.00,meteohub,2013-05-07 14:04:00,
2013-05-07 10:09:00,58.1,57.7,30.01,SE,135,0.0,0.0,99,0.00,,,0.00,meteohub,2013-05-07 14:09:00,
2013-05-07 10:14:00,58.6,58.3,30.01,West,270,0.0,0.0,99,0.00,,,0.00,meteohub,2013-05-07 14:14:00,
2013-05-07 10:19:00,59.2,58.8,30.01,SW,225,0.0,0.0,99,0.00,,,0.00,meteohub,2013-05-07 14:19:00,
2013-05-07 10:25:00,59.4,59.0,30.01,SW,225,0.0,0.0,99,0.00,,,0.00,meteohub,2013-05-07 14:25:00,
2013-05-07 10:30:00,59.7,59.4,30.02,SW,225,0.0,0.0,99,0.00,,,0.00,meteohub,2013-05-07 14:30:00,
2013-05-07 10:35:00,59.7,59.4,30.02,SW,225,1.0,0.0,99,0.00,,,0.00,meteohub,2013-05-07 14:35:00,
2013-05-07 10:40:00,59.9,59.5,30.01,SW,225,0.0,1.0,99,0.00,,,0.00,meteohub,2013-05-07 14:40:00,
2013-05-07 10:45:00,59.9,59.5,30.02,SW,225,0.0,1.0,99,0.00,,,0.00,meteohub,2013-05-07 14:45:00,
2013-05-07 10:50:00,60.1,59.7,30.02,SW,225,0.0,1.0,99,0.00,,,0.00,meteohub,2013-05-07 14:50:00,
2013-05-07 10:55:00,60.3,59.9,30.02,SW,225,0.0,0.0,99,0.00,,,0.00,meteohub,2013-05-07 14:55:00,
2013-05-07 11:00:00,60.3,59.7,30.02,SW,225,0.0,1.0,98,0.00,,,0.00,meteohub,2013-05-07 15:00:00,
2013-05-07 11:05:00,60.4,59.9,30.02,SW,225,1.0,1.0,98,0.00,,,0.00,meteohub,2013-05-07 15:05:00,
2013-05-07 11:10:00,61.0,60.1,30.02,NW,315,0.0,1.0,97,0.00,,,0.00,meteohub,2013-05-07 15:10:00,
2013-05-07 11:16:00,61.7,60.8,30.02,NW,315,0.0,1.0,97,0.00,,,0.00,meteohub,2013-05-07 15:16:00,
2013-05-07 11:21:00,62.1,61.0,30.01,NW,315,0.0,1.0,96,0.00,,,0.00,meteohub,2013-05-07 15:21:00,
2013-05-07 11:26:00,62.4,60.6,30.01,NW,315,0.0,1.0,94,0.00,,,0.00,meteohub,2013-05-07 15:26:00,
2013-05-07 11:31:00,62.8,60.4,30.02,NW,315,0.0,0.0,92,0.00,,,0.00,meteohub,2013-05-07 15:31:00,
2013-05-07 11:36:00,63.3,60.6,30.01,NW,315,0.0,0.0,91,0.00,,,0.00,meteohub,2013-05-07 15:36:00,
2013-05-07 11:41:00,63.7,60.1,30.01,West,270,0.0,0.0,88,0.00,,,0.00,meteohub,2013-05-07 15:41:00,
2013-05-07 11:46:00,64.2,59.9,30.01,West,270,0.0,0.0,86,0.00,,,0.00,meteohub,2013-05-07 15:46:00,
2013-05-07 11:52:00,64.9,60.3,30.02,South,180,0.0,0.0,85,0.00,,,0.00,meteohub,2013-05-07 15:52:00,
2013-05-07 11:57:00,65.3,58.3,30.02,South,180,0.0,0.0,78,0.00,,,0.00,meteohub,2013-05-07 15:57:00,
2013-05-07 12:02:00,65.3,57.9,30.02,West,270,0.0,0.0,77,0.00,,,0.00,meteohub,2013-05-07 16:02:00,
2013-05-07 12:07:00,65.3,57.9,30.02,West,270,0.0,0.0,77,0.00,,,0.00,meteohub,2013-05-07 16:07:00,
2013-05-07 12:12:00,65.7,58.3,30.02,NW,315,0.0,0.0,77,0.00,,,0.00,meteohub,2013-05-07 16:12:00,
2013-05-07 12:17:00,65.5,57.7,30.02,SW,225,0.0,0.0,76,0.00,,,0.00,meteohub,2013-05-07 16:17:00,
2013-05-07 12:22:00,65.1,56.3,30.01,SW,225,0.0,0.0,73,0.00,,,0.00,meteohub,2013-05-07 16:22:00,
2013-05-07 12:27:00,65.5,56.7,30.02,SW,225,0.0,0.0,73,0.00,,,0.00,meteohub,2013-05-07 16:27:00,
2013-05-07 12:33:00,65.8,56.5,30.02,SE,135,0.0,0.0,72,0.00,,,0.00,meteohub,2013-05-07 16:33:00,
2013-05-07 12:39:00,65.5,55.8,30.02,SE,135,0.0,0.0,71,0.00,,,0.00,meteohub,2013-05-07 16:39:00,
2013-05-07 12:44:00,65.7,56.3,30.01,SE,135,0.0,0.0,72,0.00,,,0.00,meteohub,2013-05-07 16:44:00,
2013-05-07 12:50:00,66.2,55.4,30.01,South,180,0.0,0.0,68,0.00,,,0.00,meteohub,2013-05-07 16:50:00,
2013-05-07 12:55:00,66.9,53.1,30.01,SSE,158,0.0,0.0,61,0.00,,,0.00,meteohub,2013-05-07 16:55:00,
2013-05-07 13:00:00,67.6,53.8,30.01,SW,225,0.0,0.0,61,0.00,,,0.00,meteohub,2013-05-07 17:00:00,
2013-05-07 13:05:00,67.6,55.0,30.01,SW,225,0.0,0.0,64,0.00,,,0.00,meteohub,2013-05-07 17:05:00,
2013-05-07 13:11:00,67.1,53.6,30.01,SE,135,0.0,0.0,62,0.00,,,0.00,meteohub,2013-05-07 17:11:00,
2013-05-07 13:16:00,66.4,53.4,30.01,SE,135,0.0,0.0,63,0.00,,,0.00,meteohub,2013-05-07 17:16:00,
2013-05-07 13:21:00,66.2,53.6,30.00,SE,135,0.0,0.0,64,0.00,,,0.00,meteohub,2013-05-07 17:21:00,
2013-05-07 13:26:00,66.0,52.2,30.01,SE,135,0.0,0.0,61,0.00,,,0.00,meteohub,2013-05-07 17:26:00,
2013-05-07 13:31:00,65.7,51.8,30.01,SE,135,0.0,0.0,61,0.00,,,0.00,meteohub,2013-05-07 17:31:00,
2013-05-07 13:36:00,65.1,53.1,30.01,SE,135,0.0,0.0,65,0.00,,,0.00,meteohub,2013-05-07 17:36:00,
2013-05-07 13:41:00,64.4,53.6,30.01,SE,135,0.0,0.0,68,0.00,,,0.00,meteohub,2013-05-07 17:41:00,
2013-05-07 13:46:00,64.4,54.9,30.00,SE,135,0.0,0.0,71,0.00,,,0.00,meteohub,2013-05-07 17:46:00,
2013-05-07 13:51:00,64.8,54.7,30.00,SE,135,0.0,0.0,70,0.00,,,0.00,meteohub,2013-05-07 17:51:00,
2013-05-07 13:56:00,64.9,53.8,30.00,South,180,0.0,0.0,67,0.00,,,0.00,meteohub,2013-05-07 17:56:00,
2013-05-07 14:02:00,65.1,51.8,30.00,SSE,158,0.0,1.0,62,0.00,,,0.00,meteohub,2013-05-07 18:02:00,
2013-05-07 14:07:00,65.7,52.3,30.00,South,180,0.0,1.0,62,0.00,,,0.00,meteohub,2013-05-07 18:07:00,
2013-05-07 14:12:00,66.7,52.3,29.99,South,180,0.0,1.0,60,0.00,,,0.00,meteohub,2013-05-07 18:12:00,
2013-05-07 14:17:00,67.3,50.5,29.99,WSW,248,0.0,1.0,55,0.00,,,0.00,meteohub,2013-05-07 18:17:00,
2013-05-07 14:22:00,67.3,52.0,29.99,South,180,0.0,0.0,58,0.00,,,0.00,meteohub,2013-05-07 18:22:00,
2013-05-07 14:27:00,67.8,50.5,29.99,West,270,0.0,0.0,54,0.00,,,0.00,meteohub,2013-05-07 18:27:00,
2013-05-07 14:32:00,68.4,49.5,29.99,South,180,0.0,0.0,51,0.00,,,0.00,meteohub,2013-05-07 18:32:00,
2013-05-07 14:37:00,68.5,50.7,29.99,SE,135,0.0,0.0,53,0.00,,,0.00,meteohub,2013-05-07 18:37:00,
2013-05-07 14:42:00,69.1,51.3,29.99,South,180,0.0,0.0,53,0.00,,,0.00,meteohub,2013-05-07 18:42:00,
2013-05-07 14:48:00,68.7,49.8,29.98,South,180,0.0,0.0,51,0.00,,,0.00,meteohub,2013-05-07 18:48:00,
2013-05-07 14:53:00,68.9,50.0,29.98,South,180,0.0,0.0,51,0.00,,,0.00,meteohub,2013-05-07 18:53:00,
2013-05-07 14:58:00,68.9,50.5,29.98,South,180,0.0,0.0,52,0.00,,,0.00,meteohub,2013-05-07 18:58:00,
2013-05-07 15:03:00,69.3,50.4,29.98,South,180,0.0,0.0,51,0.00,,,0.00,meteohub,2013-05-07 19:03:00,
2013-05-07 15:08:00,69.3,50.4,29.98,SE,135,0.0,2.0,51,0.00,,,0.00,meteohub,2013-05-07 19:08:00,
2013-05-07 15:13:00,69.1,51.3,29.98,South,180,0.0,2.0,53,0.00,,,0.00,meteohub,2013-05-07 19:13:00,
2013-05-07 15:19:00,69.3,48.7,29.97,South,180,0.0,2.0,48,0.00,,,0.00,meteohub,2013-05-07 19:19:00,
2013-05-07 15:24:00,69.3,48.7,29.98,South,180,1.0,0.0,48,0.00,,,0.00,meteohub,2013-05-07 19:24:00,
2013-05-07 15:29:00,69.3,48.2,29.98,South,180,0.0,2.0,47,0.00,,,0.00,meteohub,2013-05-07 19:29:00,
2013-05-07 15:34:00,69.3,47.7,29.97,South,180,0.0,2.0,46,0.00,,,0.00,meteohub,2013-05-07 19:34:00,
2013-05-07 15:39:00,69.4,48.4,29.97,South,180,0.0,2.0,47,0.00,,,0.00,meteohub,2013-05-07 19:39:00,
2013-05-07 15:45:00,69.6,50.7,29.97,South,180,0.0,1.0,51,0.00,,,0.00,meteohub,2013-05-07 19:45:00,
2013-05-07 15:50:00,69.6,47.3,29.97,South,180,0.0,1.0,45,0.00,,,0.00,meteohub,2013-05-07 19:50:00,
2013-05-07 15:55:00,70.0,47.1,29.97,South,180,0.0,1.0,44,0.00,,,0.00,meteohub,2013-05-07 19:55:00,
2013-05-07 16:00:00,69.6,46.8,29.97,South,180,0.0,1.0,44,0.00,,,0.00,meteohub,2013-05-07 20:00:00,
2013-05-07 16:05:00,69.6,46.8,29.97,South,180,0.0,0.0,44,0.00,,,0.00,meteohub,2013-05-07 20:05:00,
2013-05-07 16:10:00,70.0,46.4,29.96,South,180,0.0,1.0,43,0.00,,,0.00,meteohub,2013-05-07 20:10:00,
2013-05-07 16:15:00,70.0,47.7,29.97,South,180,0.0,1.0,45,0.00,,,0.00,meteohub,2013-05-07 20:15:00,
2013-05-07 16:21:00,70.2,46.6,29.97,NW,315,0.0,1.0,43,0.00,,,0.00,meteohub,2013-05-07 20:21:00,
2013-05-07 16:26:00,70.3,46.8,29.97,NW,315,0.0,1.0,43,0.00,,,0.00,meteohub,2013-05-07 20:26:00,
2013-05-07 16:31:00,70.5,46.9,29.97,NW,315,0.0,1.0,43,0.00,,,0.00,meteohub,2013-05-07 20:31:00,
2013-05-07 16:36:00,70.0,45.9,29.97,South,180,0.0,0.0,42,0.00,,,0.00,meteohub,2013-05-07 20:36:00,
2013-05-07 16:41:00,69.6,47.3,29.97,South,180,0.0,0.0,45,0.00,,,0.00,meteohub,2013-05-07 20:41:00,
2013-05-07 16:46:00,69.6,46.8,29.97,South,180,0.0,0.0,44,0.00,,,0.00,meteohub,2013-05-07 20:46:00,
2013-05-07 16:51:00,69.6,47.8,29.97,SE,135,0.0,0.0,46,0.00,,,0.00,meteohub,2013-05-07 20:51:00,
2013-05-07 16:57:00,69.6,47.3,29.97,SE,135,4.0,0.0,45,0.00,,,0.00,meteohub,2013-05-07 20:57:00,
2013-05-07 17:02:00,69.6,48.6,29.97,SE,135,0.0,4.0,47,0.00,,,0.00,meteohub,2013-05-07 21:02:00,
2013-05-07 17:07:00,70.0,47.1,29.97,South,180,0.0,4.0,44,0.00,,,0.00,meteohub,2013-05-07 21:07:00,
2013-05-07 17:12:00,69.6,49.1,29.97,South,180,0.0,4.0,48,0.00,,,0.00,meteohub,2013-05-07 21:12:00,
2013-05-07 17:17:00,69.4,49.5,29.98,South,180,0.0,0.0,49,0.00,,,0.00,meteohub,2013-05-07 21:17:00,
2013-05-07 17:22:00,69.1,48.6,29.98,South,180,0.0,0.0,48,0.00,,,0.00,meteohub,2013-05-07 21:22:00,
2013-05-07 17:27:00,68.9,51.1,29.98,West,270,0.0,1.0,53,0.00,,,0.00,meteohub,2013-05-07 21:27:00,
2013-05-07 17:32:00,69.3,52.0,29.98,South,180,0.0,2.0,54,0.01,,,0.01,meteohub,2013-05-07 21:32:00,
2013-05-07 17:37:00,69.3,51.4,29.98,West,270,0.0,2.0,53,0.01,,,0.01,meteohub,2013-05-07 21:37:00,
2013-05-07 17:42:00,68.7,50.9,29.98,SW,225,0.0,1.0,53,0.01,,,0.01,meteohub,2013-05-07 21:42:00,
2013-05-07 17:47:00,68.4,50.5,29.98,South,180,2.0,2.0,53,0.01,,,0.01,meteohub,2013-05-07 21:47:00,
2013-05-07 17:53:00,67.8,51.1,29.98,South,180,0.0,2.0,55,0.01,,,0.01,meteohub,2013-05-07 21:53:00,
2013-05-07 17:58:00,67.6,50.9,29.98,South,180,0.0,2.0,55,0.01,,,0.01,meteohub,2013-05-07 21:58:00,
2013-05-07 18:02:00,67.5,51.6,29.98,West,270,0.0,2.0,57,0.01,,,0.01,meteohub,2013-05-07 22:02:00,
2013-05-07 18:08:00,67.5,51.6,29.98,South,180,3.0,3.0,57,0.01,,,0.01,meteohub,2013-05-07 22:08:00,
2013-05-07 18:13:00,67.3,50.5,29.99,South,180,1.0,3.0,55,0.01,,,0.01,meteohub,2013-05-07 22:13:00,
2013-05-07 18:18:00,66.9,50.7,29.99,South,180,0.0,3.0,56,0.01,,,0.01,meteohub,2013-05-07 22:18:00,
2013-05-07 18:23:00,66.6,50.4,29.99,South,180,0.0,3.0,56,0.01,,,0.01,meteohub,2013-05-07 22:23:00,
2013-05-07 18:28:00,66.2,50.9,29.99,South,180,0.0,2.0,58,0.00,,,0.01,meteohub,2013-05-07 22:28:00,
2013-05-07 18:33:00,65.8,51.1,29.99,South,180,0.0,0.0,59,0.00,,,0.01,meteohub,2013-05-07 22:33:00,
2013-05-07 18:38:00,65.5,51.3,29.99,West,270,0.0,0.0,60,0.00,,,0.01,meteohub,2013-05-07 22:38:00,
2013-05-07 18:44:00,65.1,51.3,29.99,West,270,0.0,0.0,61,0.00,,,0.01,meteohub,2013-05-07 22:44:00,
2013-05-07 18:49:00,64.9,50.7,29.99,West,270,0.0,0.0,60,0.00,,,0.01,meteohub,2013-05-07 22:49:00,
2013-05-07 18:54:00,64.6,50.9,29.99,West,270,0.0,0.0,61,0.00,,,0.01,meteohub,2013-05-07 22:54:00,
2013-05-07 18:59:00,64.2,50.5,29.99,South,180,0.0,0.0,61,0.00,,,0.01,meteohub,2013-05-07 22:59:00,
2013-05-07 19:04:00,64.0,50.4,29.99,South,180,0.0,0.0,61,0.00,,,0.01,meteohub,2013-05-07 23:04:00,
2013-05-07 19:09:00,63.9,50.2,29.99,South,180,0.0,0.0,61,0.00,,,0.01,meteohub,2013-05-07 23:09:00,
2013-05-07 19:14:00,63.7,50.0,30.00,South,180,0.0,0.0,61,0.00,,,0.01,meteohub,2013-05-07 23:14:00,
2013-05-07 19:20:00,63.3,49.6,30.00,South,180,0.0,0.0,61,0.00,,,0.01,meteohub,2013-05-07 23:20:00,
2013-05-07 19:25:00,63.1,49.8,30.00,South,180,0.0,0.0,62,0.00,,,0.01,meteohub,2013-05-07 23:25:00,
2013-05-07 19:30:00,63.0,49.8,30.00,South,180,0.0,0.0,62,0.00,,,0.01,meteohub,2013-05-07 23:30:00,
2013-05-07 19:35:00,62.8,50.0,30.00,South,180,0.0,0.0,63,0.00,,,0.01,meteohub,2013-05-07 23:35:00,
2013-05-07 19:41:00,62.4,50.0,30.00,South,180,0.0,0.0,64,0.00,,,0.01,meteohub,2013-05-07 23:41:00,
2013-05-07 19:46:00,62.2,50.0,30.00,South,180,0.0,0.0,64,0.00,,,0.01,meteohub,2013-05-07 23:46:00,
2013-05-07 19:51:00,62.1,50.2,30.00,South,180,0.0,0.0,65,0.00,,,0.01,meteohub,2013-05-07 23:51:00,
2013-05-07 19:56:00,61.9,50.0,30.00,South,180,0.0,0.0,65,0.00,,,0.01,meteohub,2013-05-07 23:56:00,
2013-05-07 20:01:00,61.9,50.4,30.00,South,180,0.0,0.0,66,0.00,,,0.01,meteohub,2013-05-08 00:01:00,
2013-05-07 20:06:00,61.5,50.5,30.00,South,180,0.0,0.0,67,0.00,,,0.01,meteohub,2013-05-08 00:06:00,
2013-05-07 20:11:00,61.3,50.4,30.00,South,180,0.0,0.0,67,0.00,,,0.01,meteohub,2013-05-08 00:11:00,
2013-05-07 20:16:00,61.2,50.9,30.01,South,180,0.0,0.0,69,0.00,,,0.01,meteohub,2013-05-08 00:16:00,
2013-05-07 20:22:00,60.8,51.3,30.01,South,180,0.0,0.0,71,0.00,,,0.01,meteohub,2013-05-08 00:22:00,
2013-05-07 20:27:00,60.4,51.8,30.01,South,180,0.0,0.0,73,0.00,,,0.01,meteohub,2013-05-08 00:27:00,
2013-05-07 20:32:00,60.1,51.4,30.01,South,180,0.0,0.0,73,0.00,,,0.01,meteohub,2013-05-08 00:32:00,
2013-05-07 20:37:00,59.7,51.1,30.01,South,180,0.0,0.0,73,0.00,,,0.01,meteohub,2013-05-08 00:37:00,
2013-05-07 20:42:00,59.4,51.1,30.02,South,180,0.0,0.0,74,0.00,,,0.01,meteohub,2013-05-08 00:42:00,
2013-05-07 20:47:00,59.0,51.1,30.02,South,180,0.0,0.0,75,0.00,,,0.01,meteohub,2013-05-08 00:47:00,
2013-05-07 20:52:00,58.6,51.1,30.02,South,180,0.0,0.0,76,0.00,,,0.01,meteohub,2013-05-08 00:52:00,
2013-05-07 20:57:00,58.3,50.7,30.02,South,180,0.0,0.0,76,0.00,,,0.01,meteohub,2013-05-08 00:57:00,
2013-05-07 21:03:00,57.9,50.7,30.02,South,180,0.0,0.0,77,0.00,,,0.01,meteohub,2013-05-08 01:03:00,
2013-05-07 21:08:00,57.7,50.9,30.03,South,180,0.0,0.0,78,0.00,,,0.01,meteohub,2013-05-08 01:08:00,
2013-05-07 21:13:00,57.2,50.7,30.03,South,180,0.0,0.0,79,0.00,,,0.01,meteohub,2013-05-08 01:13:00,
2013-05-07 21:18:00,57.0,50.9,30.03,South,180,0.0,0.0,80,0.00,,,0.01,meteohub,2013-05-08 01:18:00,
2013-05-07 21:23:00,56.8,51.4,30.03,South,180,0.0,0.0,82,0.00,,,0.01,meteohub,2013-05-08 01:23:00,
2013-05-07 21:28:00,56.7,51.6,30.04,South,180,0.0,0.0,83,0.00,,,0.01,meteohub,2013-05-08 01:28:00,
2013-05-07 21:33:00,56.5,51.4,30.04,South,180,0.0,0.0,83,0.00,,,0.01,meteohub,2013-05-08 01:33:00,
2013-05-07 21:38:00,56.3,51.4,30.04,South,180,0.0,0.0,84,0.00,,,0.01,meteohub,2013-05-08 01:38:00,
2013-05-07 21:44:00,56.3,51.4,30.04,South,180,1.0,1.0,84,0.00,,,0.01,meteohub,2013-05-08 01:44:00,
2013-05-07 21:49:00,56.1,51.6,30.05,South,180,0.0,1.0,85,0.00,,,0.01,meteohub,2013-05-08 01:49:00,
2013-05-07 21:54:00,56.1,51.6,30.05,South,180,0.0,1.0,85,0.00,,,0.01,meteohub,2013-05-08 01:54:00,
2013-05-07 21:59:00,55.9,51.8,30.04,South,180,0.0,1.0,86,0.00,,,0.01,meteohub,2013-05-08 01:59:00,
2013-05-07 22:04:00,56.1,52.0,30.04,South,180,0.0,1.0,86,0.00,,,0.01,meteohub,2013-05-08 02:04:00,
2013-05-07 22:09:00,55.9,51.8,30.05,South,180,0.0,1.0,86,0.00,,,0.01,meteohub,2013-05-08 02:09:00,
2013-05-07 22:14:00,55.8,51.6,30.05,South,180,0.0,1.0,86,0.00,,,0.01,meteohub,2013-05-08 02:14:00,
2013-05-07 22:19:00,55.8,52.0,30.05,South,180,0.0,0.0,87,0.00,,,0.01,meteohub,2013-05-08 02:19:00,
2013-05-07 22:24:00,55.6,51.8,30.05,South,180,0.0,0.0,87,0.00,,,0.01,meteohub,2013-05-08 02:24:00,
2013-05-07 22:30:00,55.4,51.6,30.05,NW,315,0.0,0.0,87,0.00,,,0.01,meteohub,2013-05-08 02:30:00,
2013-05-07 22:35:00,55.4,51.6,30.04,NW,315,0.0,0.0,87,0.00,,,0.01,meteohub,2013-05-08 02:35:00,
2013-05-07 22:40:00,55.2,51.8,30.05,NW,315,0.0,0.0,88,0.00,,,0.01,meteohub,2013-05-08 02:40:00,
2013-05-07 22:45:00,55.0,51.6,30.04,NW,315,0.0,0.0,88,0.00,,,0.01,meteohub,2013-05-08 02:45:00,
2013-05-07 22:50:00,55.0,51.6,30.05,NW,315,0.0,0.0,88,0.00,,,0.01,meteohub,2013-05-08 02:50:00,
2013-05-07 22:55:00,54.7,51.3,30.05,NW,315,0.0,0.0,88,0.00,,,0.01,meteohub,2013-05-08 02:55:00,
2013-05-07 23:00:00,54.5,51.1,30.05,NW,315,0.0,0.0,88,0.00,,,0.01,meteohub,2013-05-08 03:00:00,
2013-05-07 23:05:00,54.5,51.1,30.05,NW,315,0.0,0.0,88,0.00,,,0.01,meteohub,2013-05-08 03:05:00,
2013-05-07 23:10:00,54.3,50.9,30.05,NW,315,0.0,0.0,88,0.00,,,0.01,meteohub,2013-05-08 03:10:00,
2013-05-07 23:16:00,54.3,51.1,30.05,NW,315,0.0,0.0,89,0.00,,,0.01,meteohub,2013-05-08 03:16:00,
2013-05-07 23:21:00,54.1,50.9,30.05,NW,315,0.0,0.0,89,0.00,,,0.01,meteohub,2013-05-08 03:21:00,
2013-05-07 23:26:00,54.1,50.9,30.05,NW,315,0.0,0.0,89,0.00,,,0.01,meteohub,2013-05-08 03:26:00,
2013-05-07 23:31:00,54.0,51.1,30.05,NW,315,0.0,0.0,90,0.00,,,0.01,meteohub,2013-05-08 03:31:00,
2013-05-07 23:36:00,54.0,51.1,30.05,NW,315,0.0,0.0,90,0.00,,,0.01,meteohub,2013-05-08 03:36:00,
2013-05-07 23:41:00,53.8,50.9,30.05,NW,315,0.0,0.0,90,0.00,,,0.01,meteohub,2013-05-08 03:41:00,
2013-05-07 23:46:00,53.8,50.9,30.05,NW,315,0.0,0.0,90,0.00,,,0.01,meteohub,2013-05-08 03:46:00,
2013-05-07 23:51:00,53.8,50.9,30.05,NW,315,0.0,0.0,90,0.00,,,0.01,meteohub,2013-05-08 03:51:00,
2013-05-07 23:56:00,53.8,51.3,30.05,NW,315,0.0,0.0,91,0.00,,,0.01,meteohub,2013-05-08 03:56:00,